Location: Malvern Link
(52.1333°N, 2.3000°W)
Time: 16:31:59
(UTC+00:00)

Cosmos 1634 Rocket - Pass Details

Date: 02 December 2021
Orbit: 959 x 993 km, 82.9° (Epoch: 23 January)

Event Time Altitude Azimuth Distance (km) Brightness Sun altitude
Rises 18:29:34 0° 195° (SSW) 3,693 7.3 -21.9°
Reaches altitude 10° 18:32:05 10° 198° (SSW) 2,751 6.7 -22.3°
Maximum altitude 18:38:24 72° 282° (WNW) 1,047 4.2 -23.2°
Drops below altitude 10° 18:44:46 10° 7° (N) 2,768 6.2 -24.2°
Sets 18:47:19 0° 10° (N) 3,719 6.9 -24.6°
